Theta_e
310 312 313 316 319 321 322 319 317 318 317 314 314 316 316 316 316 316 316 316 313 312 313 313 315 321 331 337 339 340 341 339 339 339 338 338 336 336 336 336 337 338 340 339 338 337 336 337 336 334 334 331 328 325 323 325 327 327 330 332 331 330 330 328 324 318 314 315 313 314 317 319 320 319 320 321 321 321 320 320 320 319 320 322 323 324
312 313 317 321 321 323 325 321 317 316 316 315 315 317 317 316 317 316 315 317 315 313 313 313 317 322 328 335 336 337 340 338 338 338 337 338 337 337 337 336 337 338 339 339 338 337 336 335 333 334 333 330 327 325 324 325 327 328 330 332 331 330 329 328 325 318 314 314 313 315 317 318 318 319 320 320 320 319 318 319 317 316 320 323 324 324
315 316 320 319 317 319 322 321 319 316 317 318 317 317 317 316 317 316 317 319 317 316 314 313 316 318 321 329 331 333 338 337 336 337 337 337 337 336 336 336 337 338 339 340 338 336 335 334 331 331 332 330 327 325 324 325 327 329 331 332 332 330 329 328 324 317 313 313 313 314 315 317 317 318 318 317 317 316 314 313 311 312 318 323 323 323
314 317 317 314 314 317 317 320 322 318 317 320 318 317 318 316 315 317 321 322 320 319 317 316 318 319 321 323 323 325 330 331 333 335 336 337 336 336 335 335 336 337 340 340 338 335 334 333 330 329 329 329 328 326 324 323 325 329 330 332 332 330 329 328 321 314 314 313 313 313 314 314 315 316 315 313 312 313 312 310 309 310 313 317 319 320
314 314 312 314 319 318 315 319 322 318 318 324 322 319 319 318 315 316 320 324 327 322 319 323 323 319 322 324 323 322 323 327 332 333 335 335 335 334 334 334 335 337 340 340 337 334 334 333 332 330 330 329 329 328 325 324 327 329 330 332 331 329 329 325 317 313 314 314 314 313 313 313 313 313 312 310 310 311 311 310 309 309 309 311 314 315
314 310 309 315 319 316 315 319 322 319 319 325 326 321 320 321 319 320 321 324 332 324 316 322 322 318 324 326 323 322 323 327 330 331 333 333 333 334 333 334 335 336 339 339 337 336 335 335 334 331 330 330 331 330 326 325 328 330 330 331 330 329 328 322 315 313 314 314 314 314 313 313 313 312 310 308 309 309 309 308 308 308 308 310 314 315
315 310 311 317 319 317 315 318 322 321 318 319 324 322 319 321 320 323 323 321 324 322 316 320 321 320 325 324 320 320 324 328 329 331 331 330 333 333 332 334 335 336 338 338 338 337 337 338 335 331 331 332 332 331 327 325 329 329 330 330 329 328 327 320 314 313 314 315 315 314 313 313 313 312 310 308 307 307 307 307 306 307 308 311 315 316
315 313 314 318 323 320 316 320 322 320 318 320 322 320 319 321 321 325 330 325 321 319 319 325 325 321 321 321 321 321 323 327 329 331 329 328 331 333 332 333 334 335 336 337 338 338 338 337 334 331 332 333 332 330 327 326 329 330 329 329 328 328 325 318 314 312 314 315 315 313 312 313 314 314 311 308 307 307 306 306 306 306 307 311 314 316
315 315 317 319 321 319 320 325 322 316 317 322 321 318 319 322 324 329 331 330 325 318 319 328 325 320 324 329 324 321 326 330 330 331 329 326 328 331 332 332 333 334 334 334 336 337 337 336 334 333 333 332 330 328 327 327 330 330 330 329 328 327 323 316 313 312 314 315 314 314 313 315 316 315 313 309 307 307 306 306 306 306 307 309 313 316
314 312 314 317 318 319 325 324 318 316 317 318 316 315 317 320 326 332 329 328 327 321 321 325 321 316 326 334 325 318 324 331 331 330 325 323 325 330 331 331 332 333 333 332 333 335 335 334 334 333 332 330 328 328 328 329 330 329 328 328 326 327 322 314 312 312 313 315 314 314 315 316 316 314 312 309 307 307 307 306 306 306 306 307 310 313
313 311 312 315 315 317 322 316 310 313 312 312 317 318 317 322 329 333 331 328 324 323 324 325 322 318 320 329 327 319 317 320 324 326 324 321 322 326 329 330 331 332 332 332 331 332 333 333 332 331 330 329 328 328 329 330 329 327 326 326 326 326 320 313 311 313 314 316 314 314 315 316 315 313 310 309 308 307 307 306 306 305 305 306 307 309
314 313 313 315 312 312 315 311 307 309 311 314 323 321 316 322 327 328 330 326 321 324 326 324 323 318 318 323 322 320 318 316 317 319 320 320 319 323 327 329 330 331 332 332 332 331 331 331 331 330 330 329 329 328 328 328 328 327 325 326 327 325 319 313 313 315 315 315 314 314 315 316 316 314 310 308 308 307 307 306 306 305 305 306 305 307
318 317 315 314 312 310 314 314 309 309 314 317 321 322 319 321 322 322 324 323 323 324 321 322 321 318 324 325 317 318 323 320 316 314 314 315 315 320 325 326 329 329 331 331 330 330 329 329 330 330 331 331 330 329 328 328 328 329 327 326 326 323 318 316 317 318 316 313 313 313 315 317 317 315 311 308 308 307 306 306 305 305 305 306 305 306
318 319 316 313 313 312 313 316 312 312 316 315 318 321 321 321 319 318 319 319 322 323 319 319 319 319 326 323 316 320 323 321 320 317 317 317 316 320 323 326 328 328 329 329 328 328 327 328 328 328 330 332 331 331 330 330 330 330 330 328 326 324 319 317 318 319 317 315 315 315 317 319 319 317 311 308 308 307 307 306 306 305 305 305 305 306
317 319 318 316 313 311 313 314 315 318 316 313 316 317 318 324 323 319 320 322 321 322 320 317 315 321 325 318 315 319 320 321 322 321 322 322 321 323 324 326 326 326 327 328 328 328 326 327 328 327 330 332 332 332 331 331 331 331 330 328 326 322 317 317 318 316 315 316 318 319 319 319 321 318 311 307 308 307 306 306 306 305 305 306 305 306
313 317 321 316 310 310 312 311 312 316 314 310 311 314 316 322 326 320 317 322 323 322 320 316 316 322 323 317 315 318 321 322 322 321 322 323 323 325 325 325 325 325 326 327 327 327 326 326 327 328 330 331 332 331 331 331 331 331 330 328 326 322 318 319 317 315 313 314 317 321 321 320 321 318 311 308 308 307 307 306 306 306 306 305 305 305
313 317 320 314 310 311 310 310 310 312 314 312 310 315 315 315 324 324 315 316 322 322 318 316 318 322 322 320 319 322 326 324 322 322 321 322 325 325 324 324 323 324 324 324 324 325 324 326 327 329 330 330 331 331 331 331 331 331 331 328 325 323 322 322 320 318 316 314 315 319 322 322 322 317 310 308 308 307 307 307 307 307 306 306 306 305
318 321 319 313 312 311 307 308 310 308 311 316 313 314 314 311 318 325 322 320 319 320 319 316 317 322 325 324 320 321 326 325 324 323 321 321 324 323 323 322 320 320 319 320 322 324 325 326 327 328 329 329 330 330 330 331 331 331 331 329 327 326 324 323 323 323 322 319 317 319 323 323 321 316 311 309 308 307 308 308 308 307 307 306 306 306
317 320 319 314 312 312 309 310 313 310 308 313 314 311 313 317 318 318 321 322 318 317 319 315 315 320 324 324 320 320 327 327 324 323 323 322 321 321 322 320 318 318 317 320 323 325 326 327 327 327 328 328 328 328 329 330 331 331 331 331 330 328 326 323 323 324 323 322 320 319 322 324 320 315 312 311 309 308 309 309 309 307 307 307 307 306
316 317 318 315 311 311 314 315 318 316 309 309 312 310 314 324 323 317 318 321 320 319 319 316 316 321 326 328 325 322 326 329 326 325 325 322 320 321 321 320 318 319 321 324 325 326 327 327 327 327 327 327 327 327 328 328 329 331 331 332 330 329 329 326 324 324 324 323 322 320 323 323 317 314 314 313 311 310 309 309 309 307 307 307 307 307
316 312 316 320 315 312 314 315 316 318 314 313 315 313 314 317 315 315 315 315 319 324 323 319 318 324 328 327 326 324 324 326 326 326 324 320 320 321 321 321 320 320 323 325 326 326 327 326 327 327 326 327 327 328 327 327 328 329 330 330 330 329 328 327 326 325 324 324 323 322 324 322 316 314 316 316 314 311 309 309 309 307 308 309 308 308
315 314 322 325 319 314 312 309 310 312 314 318 318 314 317 319 316 317 314 311 317 322 321 322 323 326 323 318 320 325 324 321 321 322 321 320 321 322 322 323 323 323 325 324 325 325 325 326 326 326 327 327 328 328 328 328 327 327 327 327 327 327 326 326 326 325 324 324 323 323 324 321 316 314 316 317 317 314 312 312 311 308 310 312 311 312
317 323 325 318 313 312 310 309 309 308 310 314 314 313 318 320 320 326 324 318 316 314 313 319 324 323 316 313 316 319 316 315 317 320 320 320 322 322 322 324 323 324 324 323 324 324 324 324 325 325 326 326 326 327 327 327 327 327 326 326 326 326 326 326 325 325 325 324 324 324 323 322 319 316 315 317 319 317 315 314 312 308 310 314 315 316
317 323 319 314 316 317 315 315 312 309 311 314 312 312 314 313 317 327 329 324 321 316 314 317 319 320 317 314 314 313 313 315 318 321 321 320 321 322 323 324 323 324 324 323 324 324 324 324 323 323 324 324 324 324 324 325 325 324 325 325 325 325 325 325 325 325 325 325 324 324 324 323 322 320 316 316 319 319 316 314 310 308 311 315 317 318
313 316 317 316 316 315 315 315 315 313 314 313 311 311 311 312 316 318 318 322 323 317 317 319 319 321 317 313 312 313 316 318 317 319 321 320 321 323 323 324 324 324 324 323 323 323 323 323 323 323 323 323 323 323 323 324 323 323 324 323 324 324 325 325 325 325 325 325 325 325 324 324 323 321 317 315 319 319 317 314 310 310 314 317 318 319
315 316 321 321 315 313 315 317 320 317 312 311 312 312 312 313 314 312 314 324 321 311 315 324 324 321 317 313 313 313 316 318 317 317 320 320 321 323 323 324 324 324 323 323 323 323 323 324 323 323 323 323 323 323 323 323 323 323 323 323 324 324 324 325 325 324 324 324 325 325 325 323 322 319 316 316 319 319 318 316 313 312 315 317 318 317
321 314 316 319 314 313 316 316 316 315 313 312 311 313 315 315 317 319 319 322 320 313 313 318 320 320 316 312 311 310 312 317 315 313 316 318 318 320 321 322 323 323 323 323 323 323 323 323 323 323 323 323 323 322 322 323 323 323 323 323 323 323 323 324 324 324 323 323 325 325 324 322 319 317 316 318 320 319 318 317 315 313 314 316 316 314
327 316 312 315 312 309 311 310 308 310 312 312 312 313 316 319 322 323 316 312 315 318 316 313 316 320 314 308 309 309 310 313 310 307 310 314 316 318 319 321 321 322 322 322 322 322 323 323 323 322 322 321 320 321 321 322 323 323 323 323 323 322 323 323 323 323 322 322 323 323 323 322 320 317 316 316 318 319 318 318 317 315 313 314 316 315
327 317 311 314 312 308 308 307 308 310 311 311 313 314 317 321 321 319 315 311 313 319 319 314 314 315 309 305 308 307 306 308 306 306 309 312 314 316 317 318 319 319 319 319 319 320 321 321 321 320 319 318 319 320 320 321 322 322 322 322 322 322 322 322 322 321 320 321 321 322 322 322 321 320 317 316 317 319 319 318 319 318 316 316 316 316
320 316 311 312 312 308 308 308 309 312 312 312 312 310 312 316 315 313 312 310 310 313 312 311 312 310 305 305 306 305 304 305 305 307 310 310 311 313 314 314 315 315 315 315 315 316 317 318 318 318 317 316 315 315 314 314 315 318 321 320 321 321 321 321 321 320 320 320 320 321 321 321 321 320 319 318 318 318 318 319 319 320 319 318 317 317
315 315 313 316 314 309 310 312 313 314 315 314 313 311 311 313 312 312 311 309 311 310 306 309 312 308 303 303 303 303 303 304 305 306 307 308 310 311 311 311 311 311 312 312 313 313 313 314 315 316 315 313 312 310 310 309 309 314 319 320 320 321 321 321 321 321 320 320 321 321 321 320 320 320 319 319 318 317 318 319 319 319 319 319 319 318
317 313 312 316 315 308 308 312 315 315 313 312 313 313 313 314 314 312 308 307 309 309 308 312 314 308 304 303 302 301 301 301 302 303 304 307 308 309 309 309 309 309 309 309 310 311 311 312 312 313 313 312 311 310 309 309 309 311 315 317 317 318 319 319 320 320 320 320 320 320 320 320 320 319 319 319 318 318 318 319 318 318 319 319 318 318
317 312 310 313 313 308 307 309 310 310 310 312 311 308 308 309 308 307 305 303 303 306 311 314 311 306 304 303 301 301 300 299 300 300 302 304 305 306 307 307 307 308 308 308 308 309 309 309 309 310 310 311 311 310 309 309 309 309 310 311 312 312 313 314 315 316 317 317 316 316 317 318 319 319 319 318 318 318 318 318 318 317 317 316 315 315
314 313 312 314 314 309 308 309 308 308 311 310 306 304 305 306 306 305 305 302 302 303 306 307 304 303 302 302 301 300 299 299 299 299 300 302 303 304 304 304 305 305 305 307 307 307 307 307 307 307 307 308 308 308 308 308 309 309 309 309 309 309 309 309 309 310 312 311 311 310 312 313 314 315 315 315 315 314 314 314 314 314 314 313 313 314
318 316 313 315 316 311 309 310 310 310 310 306 303 303 304 304 303 303 302 301 302 303 302 302 302 302 302 300 299 299 298 298 298 299 299 300 301 302 303 302 302 302 303 304 305 306 307 307 306 306 306 307 307 307 307 308 308 308 308 308 308 308 307 307 307 307 309 309 308 307 307 308 309 310 310 310 310 310 311 311 312 312 312 312 312 312
317 317 312 311 310 308 309 312 311 308 305 304 305 304 303 303 305 306 305 302 301 302 302 302 301 300 300 300 300 299 298 298 298 298 298 299 299 300 300 301 301 301 301 301 302 303 305 305 306 307 307 307 307 307 307 307 307 307 307 308 307 307 306 307 306 306 307 307 307 307 307 306 307 308 308 308 308 308 309 309 310 310 310 309 309 309
312 314 313 310 307 307 311 310 307 306 305 305 306 304 302 303 304 306 306 302 300 300 300 301 302 299 299 300 301 300 300 300 299 298 298 299 299 299 299 299 299 300 300 300 300 300 301 302 304 305 305 305 306 306 307 307 307 306 306 306 306 306 306 306 306 306 306 306 306 306 307 307 306 307 307 307 307 307 308 308 308 308 308 307 307 306
307 309 312 310 306 307 311 309 307 309 310 308 306 303 301 301 300 302 306 304 299 298 298 300 302 299 297 299 300 301 303 305 302 299 298 299 299 299 299 299 299 299 299 300 300 300 300 300 301 302 302 302 303 304 305 306 306 306 306 306 305 306 305 305 306 306 306 306 305 306 307 307 307 306 306 306 306 307 307 307 307 307 306 305 304 303
307 308 312 313 307 306 312 315 312 311 309 305 304 302 300 299 299 301 307 305 299 297 297 297 298 297 297 299 299 300 305 307 302 298 298 298 299 299 299 299 299 299 299 299 299 300 299 299 299 300 300 300 301 302 302 303 304 305 306 306 306 306 306 305 305 305 306 306 306 306 306 306 307 306 306 306 306 306 307 307 307 306 305 304 304 303
310 311 312 312 309 307 311 313 309 306 305 302 302 302 299 298 299 303 310 307 299 296 297 297 297 297 298 299 299 300 303 305 301 299 298 298 298 299 299 299 299 299 299 299 299 299 299 299 299 299 299 299 300 300 300 301 301 302 303 304 304 305 306 306 306 306 306 306 306 306 306 306 306 306 306 306 306 307 307 307 307 306 305 306 305 304
309 309 307 307 308 308 310 311 306 304 303 301 300 300 298 299 302 306 308 303 297 296 298 297 298 298 298 298 299 299 299 300 299 298 298 298 298 298 298 298 298 298 299 299 298 299 298 298 298 298 298 299 298 298 298 299 299 300 301 301 302 303 303 304 305 306 306 306 306 306 307 306 306 306 306 306 306 306 306 306 307 307 306 306 306 304
306 307 305 305 306 305 305 307 306 304 302 298 298 299 299 302 306 305 301 298 297 298 298 297 298 298 298 298 298 298 298 298 298 298 298 298 298 298 298 298 298 298 298 297 298 298 298 298 298 298 298 298 298 298 298 298 298 298 298 299 300 301 301 302 303 303 304 305 306 306 306 306 306 305 305 306 306 306 306 306 306 306 306 306 305 304
302 305 305 302 302 303 303 305 307 306 300 297 299 300 300 303 303 299 297 297 298 298 298 298 298 298 298 299 298 298 298 298 298 298 298 298 298 298 297 297 297 297 297 297 297 297 297 297 297 297 297 297 297 298 298 298 298 298 298 298 298 299 300 301 301 302 302 303 304 305 305 304 304 304 304 305 305 305 305 305 306 306 306 305 304 304
300 304 305 302 301 304 307 305 303 301 298 297 299 300 299 299 299 297 298 298 298 298 298 298 298 298 298 298 298 298 298 298 298 298 298 298 298 297 297 297 297 297 297 297 297 297 297 297 297 297 297 297 297 297 297 297 297 297 297 298 298 298 299 299 300 300 301 301 302 303 303 303 303 303 303 304 304 304 304 305 305 305 305 305 305 304
300 301 303 301 299 301 303 301 298 298 297 298 298 298 298 298 298 298 299 298 298 299 298 298 298 298 298 298 298 298 298 298 298 298 297 298 298 297 297 297 297 297 297 297 297 297 297 297 297 296 296 296 296 297 297 297 297 297 297 297 297 298 298 298 299 299 300 300 301 301 301 302 302 303 303 303 304 304 304 304 305 305 305 305 305 304
297 297 299 300 298 298 299 298 297 298 298 298 298 298 298 299 298 298 299 298 298 298 298 298 298 298 298 298 298 298 298 297 297 297 297 297 297 297 297 297 296 297 296 296 296 296 296 296 296 296 296 296 296 297 297 297 297 297 297 297 297 297 298 298 298 299 299 300 300 301 301 301 301 302 303 304 304 304 305 305 305 305 305 305 305 305
297 296 298 299 299 299 300 298 297 297 297 297 298 298 298 298 298 298 298 298 298 298 298 298 297 297 297 297 296 296 296 296 296 296 296 296 296 296 296 296 296 296 295 295 295 295 295 295 295 295 296 296 296 296 297 297 297 297 297 297 297 297 297 297 297 298 298 299 300 300 301 301 301 301 302 303 303 303 304 304 304 304 304 304 304 304
297 297 298 299 300 299 298 297 296 297 297 297 298 298 298 298 298 297 298 297 297 297 297 297 296 296 296 295 295 295 295 295 295 295 294 294 295 294 294 294 294 294 295 295 295 294 295 295 295 295 295 295 295 295 296 296 297 297 297 297 297 296 296 296 297 297 297 298 299 300 300 301 301 301 302 302 303 303 303 303 303 303 303 303 304 304
297 298 297 297 298 297 297 296 296 297 297 297 297 298 297 297 297 297 297 297 297 297 296 296 296 295 295 294 294 294 293 293 293 293 293 293 293 293 293 292 293 293 293 293 294 294 294 294 294 294 294 294 294 294 294 295 295 296 297 297 297 297 297 296 296 297 297 297 297 298 299 300 300 301 301 302 303 303 303 303 303 303 303 303 303 303
298 298 296 297 299 299 298 297 297 298 299 298 297 297 297 297 297 297 297 296 296 296 296 295 295 294 294 293 293 292 292 292 292 291 292 292 292 292 292 291 292 292 292 292 292 293 292 293 293 293 293 293 293 293 294 294 294 295 295 296 297 297 297 297 297 297 297 297 297 297 297 298 299 300 300 301 301 302 303 303 303 303 303 303 303 303
298 297 297 300 301 299 298 297 297 297 298 297 297 297 297 297 297 296 296 296 295 295 294 294 293 293 293 292 292 292 291 291 291 291 291 291 291 291 290 290 291 291 291 291 291 292 292 292 292 292 292 293 293 294 294 294 294 294 294 294 295 296 296 297 297 297 297 297 297 297 296 297 297 298 299 300 300 301 301 302 302 302 302 302 303 303
Wind_Speed
3 3 1 4 5 6 7 6 6 5 5 4 3 2 3 3 5 6 6 6 2 5 4 6 6 5 6 7 9 14 15 13 14 13 14 17 20 23 24 25 27 30 30 27 26 26 26 25 24 24 26 28 27 25 23 22 21 21 20 20 19 17 14 11 7 2 1 3 4 6 8 8 7 6 4 3 3 4 5 5 6 7 6 5 3 3
4 3 5 8 8 8 7 5 5 4 4 3 2 1 3 3 5 7 4 5 2 4 2 2 6 2 5 7 7 12 12 10 15 15 15 20 22 23 24 25 27 29 28 27 26 26 27 26 25 26 28 28 27 26 24 22 21 20 20 21 20 17 14 11 6 2 2 3 4 6 7 7 6 5 4 3 3 4 5 6 6 6 4 3 3 2
3 2 9 9 6 5 4 5 5 3 3 3 2 2 2 3 4 7 3 4 3 3 1 2 6 1 3 4 4 8 8 9 14 15 16 21 24 24 25 26 27 28 28 28 28 28 28 27 25 26 28 28 27 24 22 21 21 21 21 22 22 18 14 12 8 4 4 3 4 6 6 6 5 5 5 5 4 4 4 4 4 4 3 2 2 2
0 5 8 5 7 6 3 3 7 4 3 3 3 3 3 4 1 3 4 5 5 2 3 5 6 3 4 0 2 4 4 5 10 13 15 21 23 23 26 27 27 29 30 30 30 30 29 28 26 26 27 28 28 25 21 21 23 24 24 24 23 19 14 12 9 7 7 6 5 7 7 5 4 5 5 5 5 4 3 4 4 3 3 2 2 2
5 6 3 7 7 7 4 3 6 5 1 2 4 5 4 4 4 5 4 5 5 4 4 5 5 4 3 1 3 3 2 4 9 14 16 20 21 19 21 24 26 29 31 31 31 32 31 30 29 28 28 29 29 27 23 21 24 25 25 25 23 19 15 13 10 10 9 7 7 8 6 4 4 4 4 4 5 6 6 6 6 6 4 2 1 1
7 7 6 6 4 6 6 4 5 7 2 4 4 8 8 5 5 4 3 5 4 4 3 4 5 2 5 1 5 3 1 2 6 11 13 17 19 18 19 22 26 28 30 31 31 32 31 30 30 29 30 30 30 29 24 20 23 25 24 24 22 19 17 14 12 12 11 9 8 6 4 2 3 3 3 3 4 6 7 7 8 8 7 5 3 3
4 3 5 6 5 5 4 4 5 7 5 2 5 8 8 5 3 0 1 3 2 0 2 3 5 1 5 3 3 3 1 1 3 6 9 15 18 20 20 21 24 27 29 30 31 33 32 31 31 31 32 31 29 28 23 19 22 23 22 22 21 19 17 15 14 14 13 10 8 5 2 1 1 2 2 3 3 4 5 6 7 7 7 5 4 4
3 2 3 4 5 5 4 4 5 8 8 3 5 6 7 6 4 3 4 3 1 2 2 5 5 4 1 3 4 2 2 2 3 5 7 13 18 21 21 21 24 27 29 30 31 33 33 32 33 33 32 30 27 25 21 20 21 21 21 21 20 20 18 17 16 15 13 11 8 6 4 2 1 1 2 2 3 4 4 5 5 6 6 5 4 3
3 4 2 4 4 2 4 5 7 10 6 5 5 7 6 6 5 4 6 3 1 1 1 6 4 4 2 5 5 4 2 4 7 8 8 11 18 22 23 22 24 26 28 29 32 33 34 33 33 33 30 29 26 24 22 22 23 23 23 22 21 20 19 19 18 16 14 11 8 6 4 3 2 3 3 3 4 4 4 4 5 5 5 5 4 3
2 5 5 5 4 4 6 5 9 10 4 4 6 6 5 5 5 4 5 3 3 3 3 6 4 3 2 5 3 4 1 4 7 6 7 11 17 22 23 24 24 25 27 29 30 32 33 33 32 31 29 27 26 25 26 27 26 24 23 23 23 22 21 21 19 16 15 12 9 6 4 3 4 4 4 4 4 4 4 4 5 5 5 5 5 4
4 2 3 3 3 5 4 2 5 6 3 5 6 6 6 6 5 4 4 4 4 2 5 6 2 3 1 5 2 0 1 5 6 6 6 10 16 21 24 24 23 24 26 28 29 30 31 31 30 29 28 26 27 29 31 31 28 25 24 25 26 24 23 23 20 18 16 13 9 7 4 3 5 5 4 4 4 4 4 5 5 4 4 4 4 4
6 3 2 3 4 4 5 4 2 2 3 5 5 5 4 4 5 4 4 3 4 2 5 5 3 3 3 3 3 4 7 6 5 7 6 7 13 21 24 25 24 23 24 26 28 28 29 30 30 30 28 26 29 32 33 33 30 27 26 25 26 26 24 23 21 19 17 13 9 8 5 4 5 5 4 4 4 4 4 5 4 3 3 4 4 4
4 3 4 4 3 5 5 4 3 5 5 5 5 5 4 2 3 2 3 1 1 4 3 3 3 1 4 4 4 6 9 6 6 8 9 8 11 16 20 22 21 19 21 23 24 24 27 29 30 30 29 27 29 33 34 33 31 29 26 23 25 27 25 23 22 19 16 13 11 10 7 5 6 6 5 4 3 3 3 3 3 3 3 3 4 3
3 5 5 3 3 4 6 5 2 1 1 4 5 5 4 3 3 1 2 1 2 3 2 4 3 1 3 3 3 5 8 7 6 6 5 6 8 13 16 18 18 17 19 20 18 16 17 23 28 29 27 25 27 30 33 32 31 30 27 24 27 28 26 24 22 19 15 13 13 11 9 7 7 7 5 4 2 1 1 2 2 2 3 3 3 3
2 3 3 3 1 1 4 5 5 5 3 3 4 6 5 4 4 3 3 2 2 2 2 4 1 2 2 2 3 5 7 6 5 6 8 8 11 15 16 16 15 14 16 19 20 17 11 13 20 25 25 24 25 27 31 31 30 30 28 28 29 26 23 22 19 17 15 14 13 12 10 9 8 8 6 6 3 2 2 1 2 2 3 3 2 3
3 4 6 4 1 3 3 3 5 6 3 1 3 5 3 5 5 3 3 4 4 2 1 2 1 2 3 3 5 5 6 7 7 10 15 17 18 20 20 18 15 12 12 13 18 18 13 12 14 19 23 25 26 26 29 29 29 29 29 29 27 21 17 18 16 16 17 17 16 13 12 12 10 9 8 8 6 5 4 3 2 2 2 2 2 2
3 4 6 4 2 2 3 3 4 4 2 1 2 3 4 4 7 6 2 1 3 4 1 1 1 2 2 2 5 5 5 5 6 7 11 17 21 24 25 24 20 16 13 9 10 12 15 19 18 18 22 25 26 26 27 28 29 29 27 25 20 16 14 17 17 18 20 21 20 16 14 13 12 10 10 9 8 6 5 6 4 2 1 2 1 2
4 2 6 1 2 2 1 4 4 3 4 4 3 5 3 2 5 5 3 3 4 3 2 2 1 2 1 1 4 4 2 2 4 4 4 10 18 23 24 24 21 17 14 10 12 13 16 20 19 18 21 23 24 25 26 26 27 27 26 23 16 12 15 17 18 19 19 22 23 19 15 14 13 12 11 11 9 8 8 8 6 5 4 3 3 2
4 0 7 2 2 4 5 6 4 5 4 4 4 4 4 3 2 2 3 2 2 2 2 3 2 2 2 2 3 3 4 4 1 0 2 5 11 17 20 21 18 14 13 12 15 15 14 14 14 13 16 18 20 21 22 22 23 23 23 22 18 17 17 16 18 19 18 19 22 21 18 16 15 14 14 14 13 12 12 10 9 8 7 6 5 4
3 3 4 3 1 2 5 4 2 2 5 4 3 3 2 2 4 2 3 3 4 4 2 1 2 2 5 4 5 6 7 6 5 3 1 3 6 11 15 19 18 14 13 14 14 12 9 8 7 7 8 12 14 17 18 19 20 20 20 19 17 16 14 13 14 17 18 19 20 22 21 19 18 17 17 17 15 15 14 13 12 12 9 8 7 5
3 3 3 4 3 2 1 0 3 4 2 3 2 1 1 2 3 2 2 2 4 5 3 2 1 4 5 3 5 6 7 7 5 3 1 3 6 7 11 17 18 15 14 13 12 8 6 5 5 4 5 6 9 12 14 15 16 16 16 16 14 13 12 11 12 15 17 19 20 23 24 22 21 20 19 18 16 16 15 13 14 14 11 10 9 7
2 3 3 2 4 2 1 3 3 4 5 5 3 3 3 3 4 4 2 1 2 4 4 5 2 5 5 2 3 4 5 6 5 5 3 5 9 9 11 15 16 16 15 12 10 8 7 6 6 6 5 4 4 5 6 7 9 10 11 9 8 8 9 9 11 13 15 18 21 24 26 24 22 22 21 19 17 17 17 15 16 16 13 12 11 9
3 4 3 1 1 1 4 4 3 1 4 6 4 2 4 3 4 5 4 3 2 2 2 4 2 4 5 4 5 5 4 5 9 10 8 8 10 12 14 15 15 15 14 12 10 8 7 7 7 7 6 5 4 4 4 3 3 4 4 3 4 5 7 8 9 10 13 17 20 23 25 24 24 24 24 21 19 19 19 18 18 17 15 14 14 12
1 3 4 1 3 4 5 5 5 4 6 6 4 3 3 2 2 5 5 3 4 3 2 3 1 4 5 5 5 4 2 5 9 11 11 10 10 11 14 15 13 13 11 10 9 8 7 7 7 7 7 6 5 4 4 4 4 4 3 3 5 6 6 7 7 8 11 15 19 21 23 24 24 24 26 25 21 21 21 20 19 18 17 16 16 15
1 1 4 3 2 3 3 4 5 5 4 4 1 2 2 4 4 3 2 3 3 4 4 5 3 5 4 5 7 8 7 7 7 9 11 11 12 13 13 13 12 11 9 8 7 6 5 6 6 7 7 6 5 5 4 4 4 4 4 5 5 6 6 6 6 7 10 13 16 17 19 23 24 24 27 27 23 22 21 20 20 19 18 18 18 16
3 2 3 5 4 4 3 2 3 1 2 1 1 3 4 4 4 2 2 4 2 3 4 5 4 4 4 6 9 10 8 7 8 8 9 9 11 11 11 11 10 8 7 6 6 5 5 4 4 5 5 5 5 4 4 4 4 4 4 4 4 4 5 5 5 7 8 11 13 14 17 21 22 23 26 26 24 23 21 20 21 20 19 19 19 17
5 3 2 5 4 5 6 5 4 3 3 1 1 3 4 3 2 3 4 2 4 4 2 2 4 3 3 8 9 9 8 6 6 8 8 8 7 7 7 8 8 7 7 6 6 5 5 5 5 5 4 4 3 2 2 3 4 3 3 2 2 1 2 2 2 3 5 8 10 13 16 18 20 23 24 23 22 22 21 20 20 20 21 21 22 21
5 3 3 5 5 1 2 2 2 4 5 2 1 3 4 4 5 6 4 1 3 6 1 5 1 4 2 7 7 7 7 5 6 10 11 9 7 5 5 6 6 7 7 6 6 6 6 6 6 5 4 4 3 3 3 3 3 2 1 1 1 1 2 1 2 2 3 5 7 10 13 15 18 22 23 21 19 20 21 20 19 19 21 21 20 21
5 2 1 3 5 6 5 5 5 6 4 4 4 4 5 6 7 6 3 2 2 5 4 2 5 5 3 5 5 6 5 5 7 11 12 12 10 8 6 6 5 5 5 5 5 6 7 6 5 4 4 4 4 4 4 4 4 2 1 2 1 2 2 2 2 2 2 3 5 9 11 13 14 17 20 21 19 19 20 21 20 20 20 20 19 20
4 2 1 4 5 6 7 6 7 8 6 5 7 6 5 8 9 7 3 2 4 4 4 7 11 6 3 4 5 5 6 10 15 18 17 16 14 12 11 9 7 5 4 3 2 3 4 4 4 4 4 4 4 4 4 5 5 4 1 2 2 3 3 1 1 1 1 2 3 6 9 11 12 15 18 20 20 19 19 19 20 19 19 19 20 19
4 3 3 5 5 4 6 5 6 7 5 4 6 6 5 8 8 7 4 4 5 5 4 8 11 6 3 4 5 7 11 18 21 22 21 20 18 17 17 15 13 11 8 5 3 2 2 3 4 4 4 4 4 4 4 4 4 4 3 1 2 3 3 3 3 3 3 3 3 5 8 9 11 12 14 17 19 20 18 18 18 17 17 18 19 18
3 3 2 5 5 2 3 1 1 4 6 4 3 5 6 5 5 4 2 2 2 4 4 6 7 3 1 3 6 10 17 21 20 19 21 22 23 24 23 21 19 16 14 11 8 6 4 4 4 4 4 4 4 3 3 2 2 2 2 2 1 0 1 2 3 4 4 4 4 5 7 8 10 11 12 13 15 17 17 18 17 17 17 17 18 17
2 5 4 4 4 3 1 2 4 5 6 1 2 3 3 3 5 5 4 4 2 3 5 4 3 3 2 1 5 9 14 16 17 18 20 21 24 26 25 23 22 19 17 16 14 12 11 9 8 6 5 4 4 3 2 2 2 2 2 3 3 3 2 1 1 2 3 3 3 5 6 8 10 11 12 12 14 15 16 16 17 16 16 15 14 13
3 5 4 2 4 4 2 2 4 4 4 3 5 3 1 2 5 7 5 4 5 3 3 4 4 3 3 4 6 9 11 14 18 21 22 22 23 24 24 23 22 19 17 15 13 13 12 12 12 11 9 7 5 5 4 2 3 3 3 2 1 1 2 2 2 1 1 2 3 4 6 7 8 9 11 12 13 12 12 13 12 12 11 11 10 9
3 4 2 2 4 4 2 3 4 3 4 3 4 2 4 5 7 11 9 5 6 5 5 6 6 5 6 8 11 14 17 20 23 24 24 24 23 23 23 22 21 19 17 15 12 9 7 7 8 9 9 8 6 5 4 3 3 4 4 4 4 3 1 2 2 2 2 3 3 4 5 6 7 8 9 10 11 10 9 9 9 9 8 8 7 6
4 3 2 2 3 3 3 3 3 3 3 1 4 3 3 3 3 8 8 6 6 4 3 4 4 3 6 9 11 15 18 21 24 24 22 21 21 21 21 20 19 18 17 17 15 13 10 6 5 4 4 3 2 1 3 3 3 4 5 5 5 5 5 5 4 4 5 6 5 5 5 5 6 7 7 7 7 7 7 7 8 8 8 7 7 7
4 3 2 2 1 3 4 2 0 3 2 2 1 2 1 0 1 3 5 2 3 4 2 3 3 3 4 5 6 8 10 14 17 17 17 17 17 17 17 16 15 14 13 13 13 13 12 10 8 6 5 6 6 5 5 5 5 5 5 5 5 5 6 6 6 6 8 9 8 7 7 7 7 7 8 7 7 7 7 7 7 7 7 8 8 8
4 2 3 3 1 3 5 3 2 3 1 5 4 2 1 2 3 4 5 2 3 6 3 3 3 4 5 6 3 6 4 6 6 7 12 13 12 11 12 11 11 10 10 9 9 9 8 8 8 8 8 9 9 9 8 8 9 9 7 6 5 5 5 6 6 7 8 9 9 9 9 9 9 8 7 7 7 8 9 9 8 9 8 8 8 7
7 3 3 4 2 2 5 4 3 3 4 4 5 5 7 5 4 4 5 1 2 6 5 4 6 6 7 9 7 4 4 3 0 2 7 10 9 9 9 8 8 9 9 9 10 10 10 9 8 8 9 9 9 10 9 9 10 11 12 12 11 11 10 9 8 8 8 9 10 10 8 8 9 10 9 9 8 9 10 10 10 9 9 8 8 7
7 5 4 4 2 2 4 3 2 3 2 3 4 7 9 3 5 5 3 4 3 4 5 7 9 9 8 9 8 6 5 3 2 2 5 7 7 8 8 9 10 10 11 12 12 13 13 13 13 12 12 12 12 13 12 12 12 12 13 13 14 16 16 15 13 12 10 10 12 13 11 9 9 10 10 10 9 9 10 10 10 10 10 10 9 9
4 3 2 3 3 3 4 3 0 2 3 2 4 8 7 2 5 3 4 6 1 4 6 8 9 9 9 10 8 7 5 2 0 3 5 7 8 9 9 10 11 12 13 14 15 16 17 17 17 16 16 16 17 17 18 17 17 16 16 15 14 15 15 16 17 17 17 17 17 19 18 17 17 17 17 17 17 16 15 14 14 13 13 13 12 11
2 3 3 2 2 3 3 3 1 2 2 4 5 7 6 4 4 3 4 4 4 6 6 8 8 7 8 9 8 5 4 3 4 6 8 9 11 12 12 13 14 15 16 16 17 18 19 20 20 20 20 20 20 21 21 22 22 21 21 20 18 17 16 16 17 18 19 20 21 22 22 21 21 20 20 21 22 21 21 21 19 18 16 15 14 13
1 2 2 1 1 2 3 3 2 2 4 8 5 4 5 3 6 7 7 6 6 6 6 6 6 6 6 5 5 5 6 6 7 9 10 12 13 15 16 17 18 18 19 20 20 20 21 22 23 23 23 22 22 22 22 23 24 23 23 23 23 22 21 20 20 19 19 19 20 21 21 20 19 18 18 20 20 20 21 22 21 20 18 17 16 14
1 1 2 1 1 2 2 1 2 4 5 9 5 3 3 7 10 10 9 7 5 5 4 4 4 5 6 6 8 8 9 10 11 12 14 15 16 17 18 19 20 21 22 22 23 23 23 24 25 25 26 25 24 24 23 23 24 25 25 24 23 23 24 23 23 23 23 22 21 21 21 21 21 21 21 22 22 22 22 22 22 21 21 19 18 16
1 2 3 2 1 2 2 2 4 2 4 11 14 13 10 11 9 6 5 5 3 2 1 2 3 5 6 8 10 11 13 14 16 17 18 19 19 20 21 21 22 23 24 24 24 25 25 26 27 28 28 27 26 25 24 22 22 24 25 24 23 24 25 24 24 24 24 24 24 24 23 23 23 23 23 23 23 23 23 23 23 22 21 20 18 17
1 3 4 4 3 4 6 5 5 4 7 11 13 12 11 10 7 4 3 3 2 0 1 2 3 5 7 9 11 13 15 17 19 20 21 22 23 24 25 26 26 27 28 28 28 28 28 29 29 30 30 30 28 26 25 23 23 24 25 25 24 25 25 25 25 24 24 24 24 24 25 25 24 23 23 23 23 22 22 22 22 21 20 19 18 17
1 2 3 3 3 3 2 2 3 4 6 9 10 10 10 9 7 5 3 2 2 0 2 4 5 7 9 11 12 13 15 17 19 21 22 24 26 27 28 29 30 31 31 32 32 31 31 31 32 32 32 32 31 29 27 27 26 26 26 26 26 26 27 28 27 27 26 25 24 24 24 25 25 24 23 24 24 25 24 23 23 22 21 20 19 18
2 4 4 3 3 1 2 5 5 5 5 7 8 9 8 7 5 3 2 1 0 2 4 5 7 9 10 11 13 15 16 17 19 22 23 25 26 27 27 28 29 30 31 31 30 31 31 31 32 32 33 34 34 32 32 31 30 29 28 28 28 27 27 29 29 29 29 28 27 25 24 24 24 24 23 24 25 26 26 26 26 25 24 23 22 21
2 2 1 2 3 3 1 4 6 5 2 4 7 6 5 4 2 1 0 2 3 4 6 8 9 10 12 13 14 15 16 16 17 19 21 22 23 24 25 26 27 28 29 30 30 31 31 32 32 33 33 33 33 34 34 35 34 34 33 32 30 28 28 28 29 30 30 30 29 29 28 26 24 23 22 22 23 23 24 26 27 26 25 23 22 21
2 2 1 4 4 1 2 7 10 4 1 6 9 6 4 3 2 2 3 4 5 6 7 8 8 9 10 11 11 12 13 15 16 17 19 21 22 23 24 25 26 27 28 29 29 28 28 27 27 28 29 30 31 31 33 34 34 35 35 35 34 32 31 30 29 29 30 30 30 30 30 29 28 26 23 22 21 21 22 22 23 23 21 20 19 20
3 3 3 4 4 3 5 13 16 7 1 6 9 6 5 5 3 3 4 4 5 6 7 7 7 8 8 8 8 11 13 16 17 18 20 21 21 21 21 21 23 23 23 23 22 22 21 21 22 23 25 25 25 26 27 28 29 30 31 32 34 34 34 34 32 31 30 29 29 29 29 29 30 29 27 24 22 21 21 21 21 20 20 20 20 20
Wind_Direction
128 124 167 201 207 218 215 185 170 165 129 115 126 162 210 221 272 266 265 281 178 144 223 197 174 206 192 181 177 171 172 170 173 179 177 176 183 192 197 203 207 205 203 202 204 206 206 203 199 193 187 189 194 194 196 201 200 197 192 191 193 193 198 201 190 186 249 289 318 325 326 320 315 319 319 315 306 305 311 312 320 324 322 331 339 335
80 121 228 220 207 204 202 174 143 129 104 84 127 207 269 219 251 261 255 303 291 137 280 175 139 215 209 184 174 164 166 174 179 180 177 176 183 194 198 204 209 209 205 204 207 208 207 204 196 193 194 195 197 199 201 203 201 200 197 195 198 200 203 203 194 192 243 283 307 316 323 318 311 312 310 301 295 298 298 301 310 313 316 329 341 348
33 243 246 226 185 157 147 135 131 137 112 83 124 156 277 242 274 287 272 316 336 118 279 120 117 334 264 199 190 178 177 185 187 187 183 182 186 195 201 205 208 209 207 206 209 207 206 205 199 197 200 201 202 204 206 208 207 206 201 199 204 208 206 201 193 190 210 243 281 291 299 301 301 307 308 300 297 297 293 307 316 311 310 309 322 335
65 255 249 198 148 139 151 132 115 106 104 117 139 141 254 258 300 295 283 324 348 75 132 124 102 20 335 360 253 225 182 165 184 192 194 194 196 199 203 207 208 208 207 206 207 206 203 203 202 202 204 206 207 207 208 211 212 209 205 204 207 210 207 203 196 192 204 221 248 263 268 275 287 298 307 308 310 316 319 339 349 336 315 284 291 308
220 237 178 128 144 159 168 156 129 130 246 256 185 170 218 245 208 224 285 335 352 27 76 89 66 9 354 157 232 252 136 136 172 183 195 204 206 208 209 210 210 210 209 206 206 206 204 204 203 204 206 208 209 207 209 212 210 207 205 205 208 208 206 208 200 193 203 215 229 245 253 260 277 288 302 316 323 329 333 341 348 345 343 339 332 333
246 238 172 142 164 173 166 194 180 163 195 303 236 203 203 204 211 242 335 18 33 19 11 57 68 338 321 269 220 244 107 123 167 178 193 203 209 214 214 211 210 212 212 209 207 207 209 208 207 208 208 209 210 209 212 213 206 203 204 204 206 205 207 212 203 192 200 211 220 234 251 275 298 306 310 327 330 328 327 334 339 340 345 359 13 19
251 230 161 149 153 157 168 231 222 162 127 316 247 205 188 165 153 195 49 73 92 214 316 61 109 197 320 314 249 267 204 171 183 191 200 203 209 216 216 213 211 212 212 210 209 210 212 213 210 209 209 211 213 212 214 212 204 203 203 202 204 206 211 215 206 193 197 207 210 209 208 252 331 333 325 327 325 319 319 326 334 336 338 348 1 11
198 155 93 110 117 124 157 238 229 148 122 234 231 159 148 153 156 151 105 98 180 213 330 15 93 119 342 276 288 334 143 210 237 216 214 208 211 217 219 218 214 214 213 211 211 212 213 214 212 210 210 213 215 214 217 216 210 206 204 204 208 211 216 218 209 197 197 205 205 197 192 190 243 290 310 313 311 312 312 318 331 333 330 336 351 12
193 174 198 128 103 127 192 215 193 151 139 241 206 134 136 143 138 119 94 84 26 110 305 330 31 99 246 275 319 23 133 240 246 222 220 213 211 216 219 221 220 218 216 213 212 213 214 213 213 212 214 215 214 215 217 214 207 202 201 207 214 217 220 219 210 199 201 207 202 198 199 202 241 266 284 297 295 302 311 318 330 331 327 331 340 7
242 200 207 144 129 218 219 209 178 162 171 206 145 100 72 73 77 77 88 98 41 65 225 290 355 102 252 287 329 38 117 243 254 238 226 216 213 216 218 220 222 221 218 216 215 216 216 216 214 214 214 214 213 213 211 207 203 201 205 214 221 225 223 217 208 199 203 207 200 197 204 228 263 278 293 295 286 295 314 321 325 329 333 337 337 357
283 247 206 164 190 204 175 150 167 160 138 130 105 64 45 32 34 49 53 85 70 2 249 267 289 131 204 285 262 131 232 240 263 278 246 216 212 215 217 219 221 221 220 216 215 216 218 218 215 213 213 212 211 210 208 208 207 208 215 221 224 227 221 213 205 199 203 207 201 199 207 249 278 292 299 288 284 305 325 322 324 334 344 352 349 354
332 342 255 252 235 167 110 74 64 57 73 100 80 72 74 4 9 31 358 45 92 261 260 271 274 148 155 253 245 267 279 262 250 259 252 222 210 209 212 216 217 219 219 216 216 216 215 215 212 211 210 209 209 209 209 211 212 213 219 224 225 224 217 209 204 202 207 209 207 209 216 243 272 289 292 280 288 321 334 323 325 349 3 14 14 8
327 260 272 309 261 171 119 71 35 15 31 79 83 89 97 19 12 30 315 360 148 237 257 301 307 180 200 223 223 262 282 281 262 258 262 259 231 208 203 208 210 212 213 212 212 213 214 214 212 211 208 208 211 212 213 215 215 217 222 227 223 216 210 205 204 207 213 220 223 222 221 233 258 276 274 256 280 332 345 331 342 21 31 37 38 38
308 301 317 330 274 197 145 126 143 299 72 127 132 127 123 100 85 198 268 311 244 239 277 316 314 261 267 265 231 262 286 297 307 302 280 257 219 190 185 190 193 195 198 200 201 209 219 217 214 212 209 211 216 217 219 220 220 223 227 224 213 206 203 202 204 209 216 227 232 228 228 232 247 266 254 224 236 9 13 353 31 60 62 66 64 73
193 309 278 206 245 208 160 159 164 156 143 168 155 129 142 153 141 188 215 177 200 235 308 310 302 170 215 289 290 292 314 337 20 70 92 107 133 143 149 157 161 167 178 188 195 204 230 234 218 213 212 216 222 224 225 226 228 229 226 217 206 198 201 205 209 217 223 231 232 227 230 234 241 254 236 205 187 130 121 108 91 85 82 87 89 102
154 243 259 256 258 154 169 181 137 115 98 218 132 108 150 180 142 133 173 168 165 137 25 276 237 203 215 286 315 337 356 12 51 91 99 102 113 115 112 113 114 122 142 169 185 194 224 253 237 220 218 222 226 229 229 231 234 229 222 216 201 188 203 218 225 233 234 236 235 228 228 234 239 241 224 200 174 148 151 155 131 95 99 117 117 120
135 253 283 322 347 164 180 182 141 135 166 168 128 162 212 172 118 110 132 41 87 121 183 257 254 303 345 334 329 360 16 15 29 72 103 110 113 108 101 99 98 99 107 133 164 179 210 238 243 232 227 228 230 233 233 234 235 228 224 218 193 181 212 228 235 243 242 241 238 228 225 233 240 237 219 194 172 168 175 163 154 182 200 167 155 151
145 256 292 353 70 337 36 113 89 75 123 130 174 193 183 100 93 104 109 20 50 137 247 335 299 276 40 48 308 343 13 13 7 25 100 115 116 114 110 108 105 100 103 137 179 192 212 236 250 243 236 237 237 239 241 239 235 230 228 224 214 229 243 239 241 243 246 248 242 229 223 231 238 230 208 188 178 183 186 177 177 205 221 207 194 191
124 230 293 272 159 317 6 80 68 7 53 119 171 155 114 120 129 91 119 128 112 160 261 339 333 237 194 211 252 240 217 212 230 309 106 112 122 128 129 128 126 121 124 158 198 219 230 245 258 251 242 244 244 245 246 242 238 235 233 234 246 261 256 248 246 240 243 251 245 233 226 229 231 221 205 197 195 195 203 217 216 209 220 218 205 203
106 132 274 278 192 331 6 64 151 313 16 45 76 68 49 128 152 153 140 145 144 155 198 320 354 263 227 208 190 204 227 224 207 208 176 98 123 142 143 139 140 143 152 171 196 217 225 229 240 234 230 237 239 242 243 241 238 236 235 242 255 261 251 242 237 235 242 247 241 230 222 224 223 212 207 207 208 210 216 223 211 204 218 220 210 213
84 126 221 288 338 40 40 324 191 183 129 70 60 59 24 69 121 141 91 93 127 139 168 160 214 265 253 210 185 201 227 230 209 193 174 79 105 133 138 136 143 152 158 165 171 178 182 182 182 176 184 202 215 228 234 236 238 240 245 253 259 260 255 241 226 228 236 238 234 224 219 222 218 208 209 212 211 215 215 211 207 207 217 219 212 210
126 144 178 294 5 58 255 287 257 203 165 141 137 164 152 122 123 124 110 294 102 121 165 158 185 262 270 274 248 230 228 230 200 152 119 104 115 125 129 132 141 149 152 155 154 155 160 151 138 131 133 139 156 188 207 219 230 238 249 256 250 242 242 237 227 223 225 228 227 223 222 226 218 211 215 215 212 213 209 208 212 211 213 219 216 209
145 112 101 55 18 212 264 299 327 355 109 108 102 124 135 119 113 127 171 217 104 94 155 122 125 255 270 293 285 277 252 207 173 151 133 123 129 131 132 136 139 143 150 154 149 144 140 132 127 123 121 121 120 119 123 141 169 191 220 232 222 221 221 224 225 219 220 221 221 225 231 232 225 221 222 219 218 217 212 212 215 213 214 220 221 218
129 95 81 16 314 313 303 325 352 16 63 73 52 52 89 81 99 139 171 173 132 148 154 94 123 254 291 324 337 351 55 124 141 148 140 131 131 131 131 135 138 142 144 141 134 129 123 123 121 119 122 128 132 131 128 129 136 143 164 206 223 229 228 230 230 224 222 220 221 229 234 233 233 230 223 220 223 222 218 220 222 219 219 221 223 225
148 91 93 98 24 350 334 340 343 351 36 74 58 6 43 70 76 110 132 80 110 183 156 125 189 245 291 342 8 22 45 72 90 126 138 132 127 130 134 138 144 150 151 147 141 137 132 127 118 115 120 125 128 130 129 131 140 148 167 200 222 235 239 243 246 239 229 222 223 227 230 234 239 233 222 221 224 223 222 225 226 222 221 225 229 235
114 73 102 129 149 173 187 227 251 262 17 53 91 35 45 81 90 132 120 83 133 194 138 135 195 242 307 350 8 11 18 34 50 87 116 120 123 134 144 148 153 158 160 163 160 158 159 154 142 136 131 128 127 124 121 127 136 146 162 181 200 223 238 246 252 246 229 217 219 225 230 236 237 227 220 221 224 223 224 228 229 223 221 229 236 240
101 52 64 113 137 176 188 225 233 148 88 46 109 56 45 55 69 91 97 117 178 164 131 212 186 153 341 347 359 357 4 19 26 48 72 86 102 127 148 151 154 156 158 167 171 174 181 180 173 165 149 140 135 125 118 119 123 134 149 157 159 206 259 265 243 226 213 209 215 226 232 235 231 222 219 221 223 223 225 231 234 229 228 237 244 242
97 37 13 69 57 58 189 280 323 86 87 60 40 33 33 39 52 77 93 174 146 126 191 270 173 109 357 342 352 344 354 16 17 29 50 66 78 101 133 145 153 160 167 177 182 186 190 188 184 172 156 148 138 140 137 118 108 108 123 133 104 4 354 34 116 154 194 212 220 229 232 234 230 225 225 228 227 224 226 233 240 239 236 240 247 245
109 60 342 63 39 18 21 21 41 69 73 49 30 6 23 49 56 75 88 330 74 135 196 219 89 80 357 337 342 340 357 32 44 49 65 78 84 95 110 121 136 153 166 176 183 190 192 191 183 161 145 139 130 129 125 116 114 104 338 306 318 335 339 20 86 128 190 215 226 233 234 233 230 230 232 235 232 228 231 236 241 243 241 243 248 249
110 114 108 92 55 17 12 27 54 62 56 40 22 4 40 69 67 70 65 16 65 108 145 113 90 66 345 313 333 358 42 67 67 66 69 74 81 93 99 98 101 107 119 136 158 178 182 182 172 150 133 120 108 100 97 102 112 119 128 281 283 288 293 300 303 276 204 176 202 221 228 230 230 231 234 234 233 233 236 239 240 243 244 247 253 255
96 152 169 96 72 1 346 6 36 53 63 52 16 358 34 70 65 53 33 26 65 87 106 99 88 65 14 6 19 45 66 68 63 60 60 64 75 87 88 86 87 88 85 87 100 133 155 159 155 146 134 119 104 93 88 84 87 98 104 134 235 254 263 253 249 253 236 208 203 214 223 229 231 232 233 233 234 237 240 241 241 244 247 250 256 259
70 126 139 90 104 243 295 332 44 69 76 72 22 355 8 52 77 72 38 12 89 139 136 100 95 110 342 23 49 61 64 63 56 53 56 62 70 78 79 79 81 82 80 82 88 98 108 119 130 136 141 140 135 124 114 109 91 66 51 51 58 276 265 252 249 249 244 235 222 222 227 228 227 227 227 229 232 234 237 239 241 245 249 251 253 253
92 136 140 111 132 183 204 148 145 105 95 109 280 329 3 68 116 105 60 15 16 131 146 140 147 179 230 38 70 62 59 60 55 53 57 63 69 73 75 76 77 78 78 79 81 85 87 89 94 101 119 145 153 143 140 159 145 101 57 36 34 44 61 346 289 269 256 248 232 225 226 226 225 221 220 223 227 229 230 234 236 237 237 237 236 237
75 119 137 130 130 153 167 110 103 115 147 228 276 272 185 135 123 106 78 16 7 42 114 129 121 111 83 84 91 82 74 73 69 65 65 66 69 73 74 74 73 74 75 77 81 83 81 81 83 82 85 102 121 115 109 152 172 160 151 138 91 66 52 10 333 289 250 241 227 212 206 211 214 210 208 207 208 212 214 214 215 215 214 217 220 225
75 87 119 100 107 139 136 76 100 189 220 266 312 334 116 115 111 103 88 44 22 33 68 86 88 102 108 105 102 97 91 82 75 70 67 66 68 71 70 68 65 64 64 62 63 63 63 75 80 70 66 76 90 100 107 141 181 186 187 181 181 194 245 317 290 258 243 243 251 245 228 222 219 211 205 202 200 200 199 198 199 200 201 203 207 216
112 112 119 72 88 139 111 94 154 221 255 281 328 353 84 88 79 86 72 32 14 16 53 86 81 100 118 115 107 101 94 82 72 65 62 64 65 65 65 63 59 57 55 50 46 40 31 30 39 33 27 32 37 164 180 190 198 204 212 214 218 232 253 267 266 252 234 228 239 255 252 245 240 231 222 220 220 217 211 204 200 197 198 202 212 226
120 123 122 74 81 138 117 117 149 359 349 198 265 330 107 20 312 113 102 56 358 358 22 106 83 74 107 120 128 126 102 77 64 51 49 56 58 57 59 58 56 54 51 47 46 44 39 32 27 15 355 341 323 296 273 259 251 241 225 216 218 224 233 243 247 239 229 225 229 237 239 239 245 246 242 239 234 226 218 210 206 212 222 231 236 238
74 109 163 152 147 112 99 94 47 21 266 219 230 263 337 324 249 168 113 82 349 1 19 113 92 62 70 74 116 174 143 65 45 25 33 43 45 46 48 47 44 40 33 26 20 21 24 24 21 12 356 346 336 326 313 288 275 268 251 234 232 228 220 222 224 219 216 218 220 223 225 227 230 233 236 237 232 224 222 221 226 237 242 237 232 227
42 42 101 115 122 112 111 129 165 187 225 237 240 277 330 325 229 148 85 64 313 10 34 95 85 66 65 61 68 116 110 80 204 324 19 26 24 22 21 17 18 13 3 356 349 344 343 342 342 341 336 331 325 324 321 305 290 281 269 261 260 258 254 249 240 227 221 222 222 221 221 224 229 230 231 235 237 234 233 234 237 241 236 227 226 229
25 17 48 95 117 105 112 136 182 197 230 246 245 293 327 314 171 118 96 242 275 29 70 95 84 71 61 53 54 73 90 124 202 319 3 2 356 357 351 344 343 336 329 327 324 322 321 319 318 316 314 313 310 310 311 308 302 295 285 277 270 266 265 261 249 236 230 230 229 227 227 226 230 233 233 237 239 233 231 235 238 239 236 233 239 247
19 18 46 113 102 66 99 120 41 249 245 263 292 324 347 109 145 130 203 221 190 90 103 95 85 73 55 48 51 60 71 88 31 335 334 330 330 332 330 325 320 316 314 312 309 308 306 303 303 304 303 305 304 302 302 301 299 297 294 288 281 277 274 266 255 245 242 239 235 234 237 241 245 244 241 243 246 243 241 244 245 244 244 244 248 254
20 14 21 80 77 58 110 111 55 260 289 337 326 337 16 105 174 211 193 164 101 95 90 73 73 67 51 48 49 45 29 6 340 322 322 325 325 324 322 317 312 307 305 303 302 303 301 298 297 297 296 298 298 297 297 296 295 294 292 289 284 281 279 273 264 257 251 248 244 241 241 245 250 250 246 245 245 243 240 241 243 244 243 244 249 255
69 62 39 66 81 79 85 64 88 195 312 344 335 323 9 92 167 160 133 118 98 87 75 58 51 41 32 31 23 2 343 337 329 320 321 321 318 319 318 315 313 310 306 304 303 302 300 298 296 294 294 294 295 295 295 294 291 289 287 284 281 279 276 273 270 265 259 254 248 243 240 239 242 245 245 243 240 237 233 232 234 235 238 244 251 255
40 101 155 217 38 100 123 100 155 205 313 2 53 117 95 113 133 129 115 111 98 78 63 34 9 355 348 345 340 332 327 325 322 318 318 315 312 312 310 309 309 307 305 304 303 302 302 300 298 295 294 293 293 293 292 291 290 287 282 279 276 273 271 270 269 267 264 260 254 247 243 242 242 242 242 241 241 240 237 234 234 234 238 244 248 248
2 99 121 111 61 93 117 138 152 153 37 60 87 105 112 116 119 115 110 113 97 47 7 347 332 319 318 320 318 318 317 316 314 314 313 311 309 309 307 306 305 303 301 299 298 298 297 296 295 294 292 291 292 291 288 286 285 283 281 278 275 271 269 267 265 263 262 262 259 254 249 247 245 242 240 239 240 239 237 236 235 235 236 238 240 242
117 103 92 92 104 78 66 90 126 117 89 93 103 110 116 122 124 121 122 134 139 138 312 317 310 306 311 311 310 313 313 310 308 308 306 305 305 304 304 303 301 300 299 297 295 295 293 291 290 289 287 287 287 286 285 283 281 280 280 279 275 272 270 268 264 261 257 256 255 254 252 250 248 244 240 236 236 237 237 236 235 234 235 236 239 244
331 62 77 95 113 98 89 142 150 112 107 117 122 126 127 127 128 126 124 139 145 126 317 312 315 316 317 316 314 313 310 308 306 305 303 303 303 302 301 300 299 298 298 298 298 297 295 292 290 287 286 285 282 280 278 277 275 274 275 275 275 275 273 270 266 262 258 255 251 248 247 247 247 247 243 237 235 236 238 238 238 239 239 240 242 244
353 51 86 97 80 86 179 172 137 113 124 135 132 134 135 127 124 127 118 113 64 324 317 317 321 320 318 318 316 311 307 306 304 303 302 303 302 302 302 301 300 299 299 298 298 297 295 293 291 289 287 285 283 280 276 273 270 268 267 269 272 274 274 271 269 265 261 257 253 249 245 243 241 242 243 240 236 234 233 233 235 238 241 243 245 247
350 41 106 102 85 78 104 139 126 104 114 164 154 151 152 144 133 145 264 297 299 304 308 311 316 317 316 315 314 310 308 308 307 306 306 306 305 305 304 302 301 301 300 299 299 298 299 299 297 296 294 291 290 287 283 278 274 270 267 266 268 271 271 271 270 268 264 259 255 252 249 245 242 239 238 238 236 232 230 230 230 233 237 240 243 246
49 129 136 92 106 146 227 175 161 140 301 197 180 170 176 191 220 256 265 288 300 303 307 311 312 313 314 317 318 318 317 317 317 313 309 308 307 305 304 303 302 301 301 303 303 304 306 308 307 306 302 299 297 293 289 286 283 278 273 269 267 267 268 267 266 264 263 260 258 254 251 249 247 244 241 239 236 231 230 230 228 227 230 234 238 241
70 167 175 131 147 203 202 180 176 167 138 183 184 183 192 206 222 245 266 299 314 312 312 315 313 314 322 330 330 326 322 321 321 318 314 311 310 309 309 309 309 310 312 315 318 319 321 321 319 315 311 309 307 302 298 294 291 287 282 276 269 266 264 263 262 259 257 257 257 256 254 251 249 248 247 246 242 235 232 231 231 231 236 241 242 240